Wind_Speed
21 22 23 22 23 27 29 26 24 23 23 22 22 20 18 17 17 16 14 13 13 12 11 11 9 8 7 6 7 6 6 7 6 7 8 7 8 8 7 9 10 8 8 8 8 9 11 11 11 14 14 13 13 12 10 10 9 8 6 7 12 13 14 18 15 10 12 17 19 20 17 16 19 19 17 16 17 16 13 14 15 17 16 14 13
21 21 21 22 25 28 27 24 23 24 24 22 22 21 19 17 17 17 14 12 13 12 11 11 10 9 8 7 7 7 7 7 6 7 7 6 7 6 6 7 10 10 9 9 10 11 12 11 12 14 14 13 13 10 8 8 9 9 5 5 8 4 5 17 19 12 13 15 17 19 18 17 18 19 18 18 18 17 17 17 15 16 17 15 13
17 19 20 23 26 27 26 23 22 24 23 22 21 21 19 18 17 16 14 13 14 12 11 12 10 9 9 8 8 8 8 8 7 6 6 6 6 5 3 7 11 10 8 10 11 11 12 13 14 14 14 14 12 9 9 9 9 11 7 6 7 2 4 14 19 16 15 14 15 20 20 17 16 19 20 19 17 16 17 19 16 15 17 16 14
12 21 24 23 26 26 25 24 23 23 23 22 22 21 20 20 18 16 14 14 13 12 11 12 10 9 9 8 8 9 9 9 7 6 7 7 5 4 3 8 9 9 9 9 10 12 13 13 14 14 14 13 12 10 9 7 5 11 10 6 7 2 3 7 14 17 17 14 14 17 19 17 15 17 21 19 16 14 15 17 16 14 15 16 18
13 23 23 20 24 26 25 25 24 22 23 23 22 21 20 19 17 15 14 14 13 12 12 11 10 9 8 8 9 9 9 9 8 7 8 7 6 4 4 5 6 8 12 12 10 12 13 12 12 12 10 9 10 9 7 4 1 8 10 7 8 7 4 2 6 13 17 15 14 14 17 18 14 13 19 20 17 14 13 15 16 15 13 15 19
19 23 19 15 21 25 25 26 24 22 23 23 21 21 19 18 16 15 14 14 13 11 11 10 9 9 8 8 9 9 9 9 8 8 8 7 7 6 6 7 5 6 12 14 11 11 11 11 11 10 7 7 8 7 5 4 1 3 3 3 6 10 8 4 4 7 10 11 12 12 14 18 16 12 14 19 20 18 15 15 17 18 17 17 20
20 20 18 16 19 24 26 26 24 22 22 22 21 20 19 17 16 15 14 14 13 11 10 9 9 9 9 8 9 8 9 8 8 8 9 7 7 8 8 7 5 7 9 12 12 11 11 11 10 9 7 6 6 5 4 2 2 3 5 7 6 10 8 5 6 5 6 7 9 10 10 13 17 15 11 13 18 20 19 18 18 18 19 20 21
18 16 18 18 19 23 26 25 24 22 21 20 20 20 19 16 15 15 14 14 13 11 10 10 9 9 8 8 9 10 9 8 8 8 8 8 8 8 8 7 7 8 7 8 11 10 10 11 10 9 8 7 6 5 4 3 2 2 3 6 6 5 2 2 4 4 6 6 7 9 10 9 12 14 11 13 15 16 18 21 20 19 19 21 22
15 15 17 19 20 23 26 25 22 21 21 20 19 19 19 16 15 16 15 15 13 12 11 10 9 8 8 8 10 11 9 8 9 8 7 8 8 8 8 8 8 8 6 8 9 7 9 10 8 8 8 8 8 7 4 4 3 3 3 3 4 2 1 2 2 3 4 6 7 9 11 11 11 11 13 15 15 12 12 15 18 18 18 18 19
12 14 16 18 21 22 24 22 20 21 22 20 18 19 19 17 16 16 15 14 12 11 11 10 8 8 10 10 11 11 10 9 10 8 7 8 7 7 9 9 8 8 7 8 8 6 8 9 5 5 6 5 6 6 5 4 1 2 4 3 2 1 1 3 4 5 4 3 4 6 8 10 11 11 13 15 16 15 14 12 13 13 13 15 16
9 13 15 17 21 22 21 21 20 22 22 19 19 20 19 17 17 16 15 14 13 12 12 10 9 11 13 12 12 11 10 9 9 8 7 7 5 5 7 8 9 8 7 8 7 5 6 6 3 2 3 4 4 5 5 5 4 1 2 1 0 1 2 4 5 6 7 7 7 6 6 7 7 7 9 11 12 14 15 15 14 13 12 12 13
12 13 14 18 21 18 15 17 19 19 18 19 20 20 18 17 17 17 17 15 14 15 14 14 14 14 14 13 13 11 9 8 8 7 7 7 7 7 6 5 5 5 5 6 6 5 4 5 5 4 2 3 3 3 3 4 4 2 2 2 2 4 5 6 7 7 7 8 8 8 8 8 8 7 8 9 9 11 13 14 16 16 17 16 14
19 17 16 16 17 14 15 19 20 17 17 20 22 21 20 20 20 20 19 18 18 17 15 17 17 16 14 13 12 10 7 6 5 4 5 5 5 7 8 6 5 3 2 2 1 2 2 3 6 7 5 5 4 2 1 2 3 4 5 4 5 5 6 8 10 9 9 10 12 13 11 9 9 9 9 9 9 10 11 12 13 13 15 15 14
25 23 22 19 16 17 20 23 23 22 24 26 26 25 24 22 22 21 20 19 18 16 15 16 16 14 13 11 10 9 6 4 3 2 2 1 1 5 6 6 8 8 6 5 5 5 5 3 2 3 3 4 3 2 1 1 3 5 6 7 8 8 8 10 11 12 13 14 15 17 17 15 14 13 12 12 12 12 11 12 12 13 15 16 15
28 26 25 23 21 20 22 23 24 25 27 28 28 26 24 22 21 21 20 18 17 16 15 16 14 12 11 9 8 8 7 5 4 3 1 0 0 2 4 5 7 8 8 8 9 9 10 8 5 3 0 2 2 4 5 6 7 8 9 10 11 11 12 13 14 15 17 17 18 19 20 20 19 18 18 18 17 16 15 14 14 15 16 17 18
29 28 27 25 24 22 22 23 23 24 25 26 25 24 22 20 19 20 19 18 17 17 17 16 14 12 10 9 9 10 9 7 6 5 4 3 2 2 2 3 6 8 9 9 9 8 10 10 7 4 1 2 1 2 4 7 8 8 8 10 12 14 15 15 15 17 19 20 21 21 21 21 20 19 19 19 18 18 18 17 17 17 17 17 17
28 28 27 25 24 23 23 23 23 23 24 24 23 21 19 17 15 14 15 16 15 15 15 15 13 12 11 9 9 10 10 8 7 7 6 6 5 5 3 2 6 9 10 10 9 8 8 9 6 3 1 3 3 4 5 6 7 6 6 8 11 13 15 15 16 18 19 19 20 21 21 22 23 23 22 22 21 21 20 20 21 20 18 16 16
26 26 25 24 23 23 23 24 23 24 25 25 23 22 21 19 16 13 14 15 14 14 14 14 13 12 11 9 8 8 9 8 7 6 5 6 6 6 4 1 5 8 10 11 9 6 6 6 4 2 2 3 5 6 6 6 7 7 6 7 8 10 12 12 13 14 15 15 16 18 20 22 25 27 27 26 26 26 25 25 24 20 17 17 17
23 23 22 23 23 22 22 23 23 23 24 23 22 21 21 20 17 16 16 16 16 14 14 14 14 12 11 9 8 7 8 7 6 5 4 4 5 4 4 2 3 6 7 8 8 7 6 5 5 4 4 5 6 6 6 6 6 6 6 7 8 8 9 10 12 14 15 14 14 15 17 20 22 23 24 25 26 26 25 25 23 20 19 20 18
23 22 21 22 22 22 22 22 22 22 22 21 20 20 20 18 16 16 16 16 16 15 14 14 14 12 10 8 7 6 6 6 6 5 4 4 4 4 4 3 4 5 4 2 2 4 6 6 6 6 7 7 7 7 8 8 8 9 9 9 8 9 12 14 16 19 20 20 19 19 20 21 21 21 22 22 23 23 21 20 19 17 18 19 20
21 22 21 21 22 22 22 22 21 21 19 19 20 19 18 16 15 15 15 15 15 14 13 11 11 9 6 5 4 5 7 7 7 7 7 6 5 4 4 4 2 1 4 6 6 7 8 8 9 12 12 11 11 12 13 14 15 15 15 14 13 13 15 17 19 19 21 22 22 21 21 22 23 23 23 23 23 23 21 19 17 14 14 16 18
21 21 20 20 21 21 21 21 21 20 18 18 19 18 16 15 14 14 14 13 12 11 11 10 10 9 7 6 6 7 8 9 10 10 10 9 9 8 6 4 4 6 6 6 6 7 8 6 8 11 11 12 13 15 16 17 18 19 19 19 17 16 16 17 18 18 19 19 20 19 20 21 22 24 25 24 22 22 21 19 16 13 12 14 15
21 20 19 18 18 19 19 19 19 19 18 17 17 16 15 14 13 11 11 11 10 9 9 9 9 8 7 6 6 7 9 11 12 12 12 12 11 10 8 4 3 5 6 5 3 5 6 7 8 11 12 14 15 18 19 21 22 23 22 21 19 17 16 16 16 16 16 17 18 19 20 20 22 24 26 25 23 20 18 16 14 13 13 14 15
21 20 18 16 16 16 17 16 16 16 15 15 15 14 12 11 9 7 6 7 7 7 6 6 7 7 7 8 7 7 8 10 14 15 15 15 14 13 12 9 6 4 5 5 4 6 10 12 13 15 17 18 19 20 20 20 20 19 18 17 16 16 16 16 17 16 16 15 15 17 18 19 20 21 22 22 19 16 13 12 11 12 12 12 12
21 19 18 17 16 15 15 15 15 14 14 13 13 12 10 9 9 9 7 6 7 6 6 5 6 6 7 9 9 7 5 8 13 15 14 15 15 14 13 13 11 8 7 5 5 8 10 13 15 15 15 15 15 14 13 12 12 12 12 13 14 14 15 16 16 15 14 13 14 15 15 15 16 17 17 16 14 12 11 11 11 10 9 9 7
18 17 17 17 17 16 15 15 14 14 14 14 13 13 12 11 11 11 11 10 9 8 8 8 7 7 8 8 9 9 10 11 12 12 10 10 9 9 9 9 8 9 8 5 5 9 12 15 15 12 9 9 9 10 10 10 9 10 10 11 12 13 13 14 15 14 13 12 13 12 13 15 18 17 14 12 11 10 10 10 11 9 7 7 4
16 16 15 15 15 16 16 17 16 15 13 13 14 16 14 12 11 12 12 12 13 13 12 12 12 11 9 8 9 11 12 11 9 8 8 8 6 6 6 5 4 5 5 5 7 10 12 13 11 8 7 8 8 9 10 10 10 11 11 12 12 13 14 14 14 13 10 8 8 8 10 15 18 14 9 5 4 6 8 9 10 8 6 5 5
15 14 14 13 12 13 13 15 18 19 18 16 16 17 16 14 13 13 12 11 12 13 12 11 13 14 11 9 11 12 9 8 9 8 8 8 7 7 6 5 4 5 5 6 8 9 10 9 8 6 7 9 9 9 10 10 11 11 11 11 12 12 12 12 12 9 5 6 8 9 11 13 15 13 7 5 4 5 7 8 7 4 4 5 6
14 14 13 11 10 10 9 9 11 15 18 20 20 19 18 17 17 16 14 12 11 10 8 8 10 12 10 8 10 11 9 9 9 8 7 8 7 8 8 7 6 5 5 6 8 9 9 10 10 9 9 9 9 10 11 11 11 12 12 13 14 14 13 11 7 6 9 10 11 12 14 14 14 14 9 3 3 2 4 5 4 4 5 5 6
11 12 12 11 11 9 8 7 7 9 12 16 20 21 20 20 19 19 18 16 15 13 12 10 10 9 8 7 8 9 8 8 7 6 6 7 8 9 10 11 10 7 4 4 7 9 10 11 11 10 9 9 10 13 14 15 16 16 15 15 16 16 15 14 13 12 12 13 12 13 15 14 14 13 7 2 6 5 6 6 7 8 8 8 9
10 9 9 10 11 9 8 7 6 5 7 10 14 18 20 20 19 19 19 18 18 18 18 16 13 10 9 10 10 9 8 7 7 6 6 7 9 11 12 13 13 11 8 6 8 10 11 12 11 11 12 13 15 16 16 16 18 18 18 17 17 17 15 14 13 11 11 11 11 12 13 13 11 8 3 3 6 7 8 8 9 9 9 9 9
12 9 8 8 9 8 7 7 6 6 5 5 9 14 16 18 17 17 16 16 17 18 18 17 15 13 12 11 10 9 9 9 8 8 8 8 9 10 12 13 13 14 13 12 14 14 14 14 14 16 18 19 19 18 16 16 16 17 18 18 18 17 15 13 10 9 10 11 10 11 11 9 6 3 3 6 7 8 9 9 8 8 8 8 7
11 8 8 10 8 6 6 6 5 5 7 7 5 8 11 13 14 15 14 14 14 16 17 18 17 16 14 13 12 12 13 12 12 10 9 9 9 9 11 13 14 15 15 16 16 17 17 17 17 17 19 20 20 18 17 15 15 15 16 16 17 17 15 12 9 10 12 11 10 9 7 4 3 5 6 7 8 8 8 8 8 8 7 6 5
9 9 8 10 9 7 7 8 8 6 6 7 6 6 6 6 10 12 12 13 13 13 15 17 18 18 18 17 16 16 16 16 15 13 11 10 10 9 10 12 13 14 15 15 15 16 16 17 17 17 17 17 17 18 17 16 15 15 15 15 15 16 15 12 11 11 12 10 9 7 5 3 5 6 7 8 8 8 8 8 8 8 7 6 5
6 7 8 9 10 10 9 8 10 11 9 7 6 6 5 3 4 7 7 9 13 13 12 15 18 19 18 18 17 17 17 18 18 16 14 13 11 10 11 11 12 13 14 14 13 13 14 14 14 14 14 14 15 16 16 16 15 15 15 14 14 14 14 13 11 11 11 10 8 7 6 7 8 9 10 10 10 10 10 9 8 7 6 5 4
4 7 9 10 10 9 8 7 7 9 8 8 7 5 3 4 3 4 6 7 10 13 12 13 16 16 14 14 15 16 16 17 17 17 16 14 12 12 12 12 12 12 12 12 11 11 11 11 11 11 12 12 13 14 15 15 14 13 14 14 13 13 13 11 9 9 9 9 9 9 9 9 9 9 10 10 10 9 8 6 5 3 2 2 2
6 10 11 9 7 6 5 5 6 5 4 5 7 4 1 3 6 8 11 10 6 7 12 13 12 11 9 8 11 13 14 15 15 15 15 14 13 13 13 12 11 11 10 10 10 10 10 10 11 11 11 12 13 14 15 14 12 12 13 13 12 12 12 11 9 10 11 11 10 11 11 10 9 8 8 9 8 7 5 4 3 3 4 4 3
4 7 8 6 3 4 4 3 4 5 6 4 4 5 4 5 6 7 8 5 3 6 11 13 12 11 9 8 8 9 10 12 13 13 14 14 13 14 14 13 12 11 10 10 10 10 10 10 11 11 11 11 12 14 14 13 12 11 11 11 11 11 12 13 13 13 13 12 11 11 10 10 9 8 7 7 6 4 3 3 3 5 7 5 2
4 4 7 6 4 2 6 3 1 5 6 4 6 5 5 6 6 7 7 5 4 9 14 15 13 11 9 9 8 8 10 12 13 12 13 13 13 13 13 13 12 12 10 10 10 10 10 10 11 11 11 11 13 14 13 12 12 11 10 11 12 11 12 13 13 12 12 11 10 9 9 9 9 8 7 6 4 4 5 6 6 5 5 4 2
3 4 7 7 4 1 3 3 3 5 6 7 6 4 4 5 5 6 6 6 8 12 15 14 12 9 7 8 10 10 11 12 12 11 12 12 12 12 13 13 12 12 10 10 10 10 10 10 10 10 10 11 13 14 13 12 12 12 11 11 12 12 11 11 11 11 12 11 11 10 9 9 8 7 6 5 6 6 7 8 6 3 6 7 6
1 4 5 6 4 3 2 1 2 5 6 7 6 5 4 5 6 6 7 6 6 8 11 12 10 8 7 8 9 10 11 11 10 9 10 11 11 11 12 12 12 11 11 10 10 10 10 10 9 10 10 11 12 14 13 13 12 12 11 11 11 11 11 11 11 11 11 10 9 8 7 6 6 5 5 8 8 7 7 8 5 4 6 9 8
5 1 1 2 1 3 3 1 2 2 3 4 4 4 3 3 5 7 7 6 6 6 8 9 9 7 7 8 9 9 10 11 10 9 9 10 10 11 11 12 12 12 11 11 11 11 10 9 9 9 10 11 11 12 13 12 11 10 11 11 11 11 11 11 11 11 9 8 7 6 5 6 6 5 8 11 10 7 8 10 10 8 9 9 9
7 4 2 2 2 4 3 3 7 8 7 6 5 3 4 4 3 4 5 5 6 6 5 5 5 4 5 7 8 9 9 9 9 9 9 9 10 11 11 12 12 11 10 10 11 11 11 10 10 10 10 10 9 9 10 11 11 10 11 12 12 12 12 11 10 9 8 7 7 6 6 7 8 7 9 12 11 9 9 11 11 11 11 11 11
8 7 4 3 4 4 2 3 8 9 7 5 4 2 3 4 0 3 3 4 4 4 3 3 1 1 2 4 6 8 8 8 8 8 9 9 10 10 11 11 11 11 11 10 9 9 10 10 11 11 11 10 9 8 9 11 11 10 10 11 11 12 12 11 10 9 7 7 7 6 6 8 8 7 9 11 12 11 12 12 11 11 11 10 9
9 9 6 3 4 5 2 5 9 9 6 3 2 3 4 4 1 3 3 3 4 4 4 3 2 2 3 4 5 6 7 8 8 8 9 10 10 10 10 10 10 11 12 12 10 9 9 9 9 9 9 9 9 8 8 9 9 9 9 8 9 9 10 9 8 8 7 6 6 6 6 7 6 5 7 10 10 9 9 10 10 9 10 8 5
8 9 7 4 3 4 1 6 10 10 7 3 2 4 4 3 2 3 3 3 3 3 4 4 3 3 4 5 5 5 6 7 7 7 7 8 9 8 8 9 9 9 10 11 10 9 9 9 9 9 10 10 10 10 9 8 7 7 6 6 6 7 7 6 6 7 7 7 8 9 9 8 6 5 7 9 9 8 7 8 7 6 7 7 5
8 8 8 5 3 4 2 4 7 8 7 4 2 3 3 2 2 3 5 5 3 4 5 6 6 4 3 5 6 6 6 6 6 7 7 7 7 7 7 7 7 8 8 8 8 7 8 8 9 10 10 10 9 9 7 6 5 4 5 5 5 5 5 4 4 5 6 6 9 10 10 9 8 7 7 7 7 7 8 8 7 5 5 5 5
7 8 8 5 4 4 2 5 7 6 6 5 3 3 3 3 3 5 6 6 6 6 6 5 6 5 3 4 5 5 5 5 5 8 9 8 6 6 6 7 7 6 7 8 7 7 7 8 8 8 7 6 6 5 4 2 2 3 4 4 4 3 2 2 3 5 5 6 8 9 8 7 8 8 9 9 8 8 9 9 9 8 7 7 5
7 7 8 7 5 5 3 6 9 8 8 8 7 5 5 6 5 5 6 7 7 6 5 4 5 5 4 4 4 5 5 4 5 8 9 7 6 5 5 6 7 6 5 6 7 7 7 7 7 6 5 4 4 4 4 4 5 5 5 5 4 4 3 2 4 5 5 6 8 8 6 6 7 8 9 10 10 9 9 9 9 9 9 10 10
6 6 9 8 6 6 6 4 4 6 10 13 11 8 7 7 7 6 6 7 7 5 4 3 3 3 4 4 3 4 5 5 5 7 8 7 6 4 4 5 5 5 5 5 5 5 5 5 5 5 5 5 6 6 6 7 7 7 7 7 6 5 3 3 3 3 3 4 6 6 5 5 5 6 8 9 10 10 10 9 8 8 8 10 13
5 7 9 9 7 6 6 6 5 5 7 11 12 12 10 9 7 7 7 6 6 6 4 3 3 2 3 4 2 3 5 6 6 8 8 7 5 3 3 3 3 3 3 4 3 4 4 4 4 3 4 5 6 6 6 6 7 7 7 6 5 4 4 3 3 2 2 4 5 6 6 6 6 7 8 8 9 11 11 9 8 8 8 10 13
Wind_Direction
203 196 184 179 178 177 176 174 171 164 157 156 156 155 157 155 155 155 150 151 158 163 166 164 162 158 155 161 160 155 155 154 154 152 151 162 163 156 171 175 161 153 153 152 155 154 153 158 158 155 154 150 154 165 174 179 175 161 147 130 135 147 156 151 138 127 142 150 156 165 170 173 175 176 175 176 173 173 191 207 195 187 187 186 186
206 198 185 179 178 176 174 171 168 161 154 156 157 155 155 154 151 152 151 153 160 165 167 164 162 163 161 160 157 157 161 160 159 160 159 161 155 159 187 171 141 137 144 143 146 151 154 159 159 156 155 154 159 167 166 159 143 133 138 150 145 127 129 145 144 136 141 153 164 166 170 180 180 177 181 186 183 181 194 209 207 201 203 204 204
209 200 187 181 178 175 172 169 165 158 154 157 158 154 154 153 147 149 154 157 162 168 167 165 168 167 163 158 156 160 163 160 163 167 158 151 157 174 169 125 119 127 136 136 143 150 153 157 157 154 154 159 165 168 170 175 160 146 146 159 159 100 78 146 154 152 152 165 175 169 171 187 187 181 190 198 192 187 200 214 215 211 216 221 226
196 194 192 186 178 172 170 167 163 159 157 158 158 154 154 155 151 153 159 160 164 169 164 165 171 169 163 158 158 164 164 162 169 168 156 158 172 178 125 111 125 143 143 134 137 140 143 149 151 154 162 170 174 172 184 215 185 151 148 151 162 142 61 142 159 162 162 172 189 180 174 187 199 189 190 197 196 192 203 216 218 218 224 227 231
186 191 196 190 175 169 167 165 162 161 160 159 157 153 150 152 153 157 162 160 163 166 161 166 172 167 165 161 160 168 166 163 170 166 162 173 179 171 147 138 155 161 148 138 132 133 140 144 146 158 168 167 162 163 185 225 163 143 156 163 180 196 208 175 164 166 166 173 196 196 177 181 201 201 190 189 189 192 204 215 217 217 222 225 228
194 192 195 190 175 168 164 164 162 160 161 159 156 152 148 149 155 159 159 159 162 160 157 164 167 163 167 165 162 168 166 166 176 171 167 177 180 175 173 174 179 156 141 139 137 138 145 145 146 157 158 147 150 156 180 208 184 121 137 112 159 180 187 186 177 173 172 178 197 203 181 178 193 208 203 193 187 189 201 214 220 219 219 220 222
193 184 185 191 178 166 161 160 159 160 161 158 152 149 147 149 156 157 155 154 154 150 153 164 167 164 169 170 162 164 167 170 173 167 165 175 180 179 183 183 160 133 134 138 143 151 155 150 149 159 162 162 165 152 138 151 7 26 27 37 107 151 161 175 193 202 197 194 205 217 212 195 191 197 217 214 199 195 200 207 217 224 223 218 217
183 172 179 187 175 164 160 157 156 156 156 154 147 145 148 150 152 155 154 150 148 151 156 163 166 164 168 165 155 157 164 161 151 154 164 172 174 172 175 171 149 143 143 136 140 148 148 146 148 154 158 159 155 137 112 104 55 26 25 37 81 124 144 194 205 210 203 204 211 222 239 234 203 198 220 234 222 210 207 207 212 223 226 221 220
175 166 169 167 160 163 164 161 156 148 145 150 149 146 150 151 148 152 154 149 148 153 154 158 167 166 155 142 137 143 149 143 137 140 146 153 163 170 170 164 154 155 146 129 136 141 136 137 134 131 137 140 143 150 153 141 111 90 104 76 69 69 331 295 274 256 222 217 215 213 228 240 231 223 234 249 255 255 241 223 219 224 227 224 225
168 161 159 151 150 161 168 164 157 148 145 150 151 149 151 149 144 145 146 144 145 146 146 152 159 150 137 130 128 132 132 127 126 125 124 136 155 170 172 165 156 157 148 137 145 145 136 140 132 126 141 145 149 163 176 182 179 96 116 117 93 92 4 353 338 325 318 291 256 236 235 238 239 242 249 260 269 274 275 260 241 237 236 235 237
144 138 140 143 145 154 165 166 160 152 150 152 154 154 152 148 145 143 142 142 139 134 133 133 127 120 124 126 121 120 121 117 117 117 118 126 133 143 161 166 161 163 154 146 155 153 140 151 165 183 204 200 194 200 201 211 230 202 150 156 25 325 325 341 338 339 346 339 326 320 312 293 282 273 270 276 276 276 282 281 271 263 257 255 257
103 107 122 143 148 145 149 160 161 158 161 167 163 154 145 141 139 137 136 131 121 115 112 109 107 108 113 118 115 113 112 112 116 122 120 117 104 94 104 125 144 162 158 150 166 174 164 169 164 159 203 216 212 225 227 229 235 243 262 279 293 299 303 305 308 317 325 322 317 314 313 313 310 298 286 287 288 282 282 285 282 273 265 264 265
84 84 99 128 145 136 123 133 144 147 152 157 150 137 127 123 121 122 122 114 107 109 109 106 105 103 103 103 103 104 104 103 109 112 113 117 97 81 79 66 52 68 111 120 161 167 160 159 140 134 155 176 172 163 197 229 230 236 249 251 252 269 284 290 294 297 298 298 295 290 290 297 299 292 285 286 290 290 283 284 291 285 275 275 273
72 73 77 89 109 120 116 117 122 120 120 127 128 124 122 119 117 119 119 114 111 115 118 114 108 103 102 98 94 100 106 107 113 109 96 105 59 63 65 47 34 32 35 29 12 2 358 3 93 115 160 181 192 233 252 271 252 245 253 258 260 265 270 278 286 286 283 283 281 279 279 279 277 276 276 275 275 281 281 280 287 288 285 288 289
60 65 70 72 83 101 107 106 106 106 109 115 117 116 115 115 117 121 122 121 119 118 118 117 111 104 103 104 109 115 119 121 134 148 128 103 340 52 50 35 24 14 10 12 9 5 3 7 32 56 252 233 264 275 270 279 282 277 274 276 279 282 281 282 286 287 286 285 281 281 282 281 276 271 269 270 270 270 272 272 273 278 281 285 288
53 56 61 66 75 86 95 99 99 100 104 108 109 108 108 105 108 114 116 115 113 112 110 110 112 113 111 115 123 126 126 126 130 137 140 140 141 121 91 53 30 11 357 346 338 337 341 345 7 41 349 295 339 309 279 279 284 287 291 290 288 288 289 292 292 288 287 285 282 282 281 278 276 272 268 267 266 264 264 265 265 269 275 279 280
53 54 56 64 73 80 87 93 96 97 98 97 97 102 106 103 101 108 114 112 109 107 105 106 113 122 122 121 125 125 122 122 124 132 141 145 145 153 163 80 30 20 13 2 341 327 328 333 350 37 332 305 319 307 284 271 271 280 297 299 295 292 293 297 297 292 289 286 282 280 276 270 268 270 270 269 268 267 268 269 269 270 274 273 267
52 55 56 63 74 82 88 91 92 93 93 93 93 97 100 101 103 109 115 115 109 106 108 111 113 118 122 121 117 114 110 108 111 116 128 144 148 157 176 154 37 40 47 46 33 6 342 340 352 13 319 301 302 297 293 284 278 276 276 284 300 307 298 291 290 291 291 286 282 279 276 270 267 269 271 271 271 270 269 267 267 267 265 262 261
49 54 57 63 72 80 86 91 92 92 92 93 95 98 100 103 108 114 116 116 114 112 116 119 116 114 118 118 111 105 98 92 89 82 89 122 128 128 151 163 75 72 75 71 59 34 4 339 331 330 315 302 298 299 304 306 304 303 297 293 303 306 291 285 291 296 294 290 290 289 285 279 273 270 270 271 271 270 268 266 265 260 255 258 263
49 54 58 63 68 72 77 83 87 89 92 95 96 98 101 105 110 115 117 118 118 116 117 121 121 117 115 112 102 86 71 60 55 47 45 66 76 82 99 109 102 91 67 31 23 17 6 345 318 309 305 299 299 306 312 316 316 317 319 317 309 296 290 292 295 296 296 294 294 293 292 289 284 277 274 274 275 274 271 270 269 264 256 256 260
49 53 56 60 64 67 70 73 76 79 85 92 95 95 98 102 104 108 112 114 114 113 111 113 113 108 102 89 66 50 34 21 16 10 7 17 24 31 52 57 47 338 325 320 314 325 335 321 297 296 300 300 301 304 305 307 308 308 311 313 308 301 299 297 295 294 295 295 293 290 289 288 285 280 276 273 274 275 272 270 270 267 258 252 256
49 50 52 55 59 63 65 68 70 71 75 82 85 83 83 86 90 94 99 102 103 101 99 97 92 87 82 71 57 52 42 28 20 14 11 13 12 13 20 9 322 298 297 310 331 342 337 307 279 287 298 301 303 304 301 301 304 305 308 310 309 306 301 298 297 297 297 298 297 291 286 282 279 277 273 272 274 272 265 260 260 259 252 247 252
47 48 48 51 55 58 61 64 67 70 74 78 79 78 75 75 77 82 87 92 97 98 98 96 93 94 98 94 78 65 55 44 36 33 34 32 30 32 35 27 333 310 308 314 332 333 320 301 287 291 299 299 300 301 301 302 302 303 305 308 308 307 304 301 304 305 303 302 300 296 293 290 284 280 278 280 281 271 252 243 244 247 244 243 247
45 44 42 45 52 57 60 62 65 68 71 74 76 76 78 79 77 75 80 92 101 108 115 121 121 123 129 130 115 85 60 49 45 45 45 43 41 40 40 39 38 12 346 343 333 307 297 294 295 297 299 300 302 301 302 303 303 302 304 306 304 303 302 304 307 309 306 303 299 299 301 300 296 291 285 282 277 262 237 226 230 236 236 239 247
46 43 41 41 48 56 60 61 64 66 67 70 71 70 73 76 73 69 72 82 93 98 101 109 117 115 116 121 116 102 84 67 57 52 48 44 42 40 37 35 37 33 25 11 330 309 304 305 309 310 307 308 311 315 321 325 322 317 315 311 307 303 301 302 305 303 296 291 293 298 305 311 315 312 303 289 273 250 225 215 217 227 235 242 247
45 45 45 43 45 52 56 55 56 61 64 66 65 63 61 61 62 65 65 64 69 72 73 78 85 89 92 99 101 101 100 91 74 59 51 45 42 42 39 34 31 28 22 4 323 317 319 319 320 324 332 336 335 339 345 348 343 336 326 317 310 302 295 294 292 286 281 287 301 311 321 335 340 332 316 302 279 247 223 213 213 221 235 238 226
38 39 43 45 47 52 56 56 56 60 66 67 64 62 60 58 62 66 62 60 60 58 56 58 57 56 58 66 79 94 98 89 68 51 44 39 30 29 34 32 29 18 357 327 315 319 324 326 330 338 352 352 342 335 334 332 331 326 316 308 304 298 293 287 278 272 278 306 326 331 333 341 347 342 319 291 243 208 202 205 209 213 217 206 186
35 32 34 40 46 53 59 61 62 62 66 70 69 64 60 60 65 66 62 63 66 62 61 64 58 47 39 41 60 73 72 51 37 32 29 26 18 9 4 355 344 331 316 317 329 335 338 346 358 2 351 344 340 337 334 333 333 332 328 327 327 322 311 294 273 269 309 352 349 342 335 334 340 338 313 252 211 197 196 200 203 197 192 187 175
43 35 30 30 37 48 59 69 75 72 70 73 77 74 67 64 65 67 65 65 67 65 69 85 80 64 49 41 50 56 47 33 31 29 19 13 14 14 13 10 357 334 314 321 338 351 357 359 3 2 353 351 356 1 1 359 356 355 355 355 357 353 346 343 341 349 0 360 351 347 344 337 330 328 316 249 186 175 181 186 180 161 163 165 157
55 46 36 28 28 37 48 64 93 103 92 86 88 89 86 80 74 72 72 70 69 68 71 80 86 76 65 61 56 51 44 38 35 33 27 23 31 39 39 34 28 23 14 349 351 1 2 356 359 1 354 0 19 24 21 17 13 11 8 4 2 358 354 359 9 8 360 357 354 349 345 340 332 326 324 134 129 129 148 158 154 147 142 130 124
44 49 44 34 32 38 42 42 61 96 117 116 108 100 95 91 86 83 83 82 79 75 70 69 69 67 66 72 67 54 49 48 42 40 43 47 53 54 50 44 40 41 44 37 19 8 353 345 354 7 8 18 33 33 25 18 14 11 8 2 358 356 355 0 6 5 0 0 357 345 339 341 341 336 336 123 120 117 123 131 134 132 125 114 108
24 28 30 26 30 43 43 32 38 57 73 112 129 121 110 103 98 94 92 91 88 84 77 70 67 65 63 64 63 57 50 47 45 46 53 61 62 54 48 46 44 43 41 33 21 13 7 6 12 17 19 23 29 29 24 18 10 4 3 3 2 5 12 17 13 2 359 359 352 342 339 345 1 37 108 124 120 111 107 108 111 110 106 102 98
34 33 20 9 18 45 46 26 27 48 45 41 76 117 122 119 115 112 107 101 94 87 81 73 67 64 60 56 56 57 53 47 47 52 59 63 62 56 53 51 46 42 40 33 24 20 21 22 20 18 18 19 20 19 18 13 5 2 5 8 7 9 14 17 6 357 1 2 356 351 354 15 79 107 113 113 110 105 98 91 88 85 78 75 78
58 62 36 12 14 34 43 24 10 27 53 50 51 71 88 107 121 127 128 123 112 95 82 77 71 63 59 58 59 60 57 54 55 61 68 69 65 62 58 52 46 44 42 36 29 25 25 23 20 17 15 12 9 10 12 9 5 5 7 8 6 6 10 12 8 5 8 7 7 11 26 69 100 100 94 90 88 89 90 86 80 75 65 57 50
94 80 53 34 23 22 30 23 358 354 9 18 28 53 55 55 116 139 147 141 131 118 96 85 80 70 62 60 62 61 58 57 59 63 65 62 60 60 57 49 45 45 42 38 34 30 28 26 21 17 13 7 3 5 6 4 4 5 8 10 6 1 3 9 16 23 27 30 38 53 69 83 87 82 76 73 70 72 79 81 77 76 73 58 21
86 61 38 32 26 16 22 27 2 349 356 359 4 32 37 355 12 70 73 87 121 134 128 106 89 76 64 60 63 64 59 56 57 58 58 56 55 54 54 51 47 45 43 39 35 34 36 33 26 18 16 13 8 5 2 3 8 13 17 17 9 1 2 9 24 48 61 62 66 73 75 71 66 63 62 63 63 65 68 67 64 70 69 20 306
59 50 28 15 10 358 0 25 23 4 350 348 348 357 34 6 12 38 49 48 68 126 134 121 96 76 65 57 59 64 61 56 54 52 51 53 55 54 54 53 50 46 45 40 34 33 36 33 25 21 20 17 15 15 14 17 24 30 29 27 24 25 33 43 59 75 80 78 75 73 69 61 54 54 61 65 64 60 50 29 3 343 333 324 286
84 46 24 21 17 337 339 38 40 339 320 339 14 21 31 31 30 50 68 62 28 63 90 91 75 59 52 44 44 59 65 59 54 51 48 49 52 52 52 52 48 44 42 39 36 36 36 33 28 27 25 24 27 29 30 32 38 40 43 47 50 53 60 68 73 76 76 77 75 71 67 65 61 61 66 64 49 34 21 354 325 325 329 332 321
130 62 44 72 103 0 358 30 2 307 325 32 73 59 29 23 40 66 77 69 43 58 71 73 63 52 46 39 42 63 73 64 55 51 48 48 50 51 49 48 47 45 42 40 39 38 37 35 32 31 31 36 42 45 44 46 50 54 62 71 74 73 70 71 73 73 72 73 71 66 66 69 68 69 74 65 32 356 339 325 315 327 348 3 38
157 122 69 66 96 92 13 359 309 324 10 46 58 53 33 21 36 75 83 60 48 59 68 68 62 54 50 48 50 60 71 69 60 52 49 49 51 51 48 47 46 46 46 46 42 40 40 39 38 40 45 49 53 55 57 59 62 65 68 73 79 80 76 72 72 72 72 73 70 67 64 57 48 50 56 35 0 340 334 328 322 7 38 39 42
280 142 88 55 76 148 175 225 334 360 24 39 42 45 43 16 18 61 94 95 74 71 79 82 77 68 65 67 67 70 74 71 62 56 56 56 54 52 50 50 49 49 50 49 47 45 45 42 40 48 58 58 55 56 59 64 67 67 66 70 77 77 71 66 65 66 67 66 61 56 48 33 26 28 17 1 355 1 11 11 18 47 39 31 28
324 242 143 78 123 211 236 225 97 75 59 56 48 36 20 9 27 51 70 81 83 90 104 111 108 94 84 81 80 79 80 78 71 65 61 60 60 57 53 52 51 52 53 51 48 46 47 46 46 58 70 69 61 56 56 58 61 62 66 72 76 73 66 63 62 62 64 65 59 50 35 27 32 26 3 359 3 20 33 35 41 43 36 34 34
311 304 303 323 288 276 302 34 83 96 95 89 79 36 353 353 46 72 70 70 70 72 86 104 110 105 101 97 88 79 77 79 79 76 70 63 60 57 54 53 54 55 57 58 53 48 47 49 50 54 61 68 72 73 71 69 67 62 63 67 71 68 66 64 61 58 54 50 47 43 34 32 30 14 3 12 27 40 38 38 45 47 41 41 41
290 291 295 310 307 293 285 96 94 88 74 72 102 121 298 298 312 104 103 109 109 100 98 111 129 139 120 107 96 88 85 82 79 79 79 73 65 58 54 53 54 53 54 61 69 63 55 55 59 59 56 56 66 80 87 86 82 75 68 66 64 59 56 54 53 54 52 45 37 30 25 26 20 6 9 24 37 43 38 33 37 43 41 38 40
280 290 293 301 319 325 1 110 108 94 71 64 132 194 255 268 207 116 117 130 135 139 151 168 175 126 108 102 91 89 93 90 79 73 72 69 66 62 57 53 52 52 53 58 69 75 70 65 69 72 70 65 68 78 86 87 86 85 81 75 71 66 62 58 50 43 38 31 21 15 16 20 18 17 26 27 27 33 34 25 22 30 32 28 35
267 284 292 290 292 309 358 108 113 109 103 110 202 247 256 250 179 138 137 135 136 152 166 171 169 152 132 120 105 93 92 89 83 81 80 73 65 63 61 57 53 53 54 56 59 64 68 71 72 78 83 78 68 65 66 65 66 70 71 71 76 82 84 75 52 33 24 20 22 27 33 35 29 28 35 29 20 19 20 10 4 17 23 16 18
260 272 282 284 281 292 331 102 120 126 125 134 222 273 270 237 199 158 142 141 164 203 203 180 163 156 136 117 106 95 88 85 88 97 100 88 73 68 69 66 57 49 51 58 62 63 72 78 77 77 83 83 76 71 69 61 53 56 62 71 88 96 88 64 40 35 35 33 31 31 32 37 36 29 23 16 3 354 356 358 0 15 25 14 12
245 259 270 273 271 278 257 145 148 150 138 142 181 235 252 246 218 171 156 165 188 208 211 185 158 145 126 110 104 96 88 86 96 107 104 90 75 73 75 74 71 58 46 49 58 65 74 82 78 71 72 82 94 103 102 78 54 58 63 74 97 101 76 48 55 61 53 41 36 27 16 21 33 26 12 5 357 349 356 2 1 2 6 357 350
233 253 268 268 264 267 237 171 163 162 155 156 172 192 215 232 227 184 170 182 193 202 207 184 160 153 148 136 129 124 119 107 100 105 104 93 81 81 78 76 81 80 61 51 53 54 57 68 76 77 78 79 86 94 89 73 71 76 74 76 87 92 83 78 79 71 54 44 48 42 21 12 21 15 6 9 11 6 10 15 6 357 354 345 339
226 240 259 262 256 256 256 237 201 176 169 169 172 178 195 216 220 206 193 191 186 186 198 202 182 161 145 139 138 132 130 126 114 109 110 106 98 88 77 75 83 87 80 76 73 63 54 54 60 75 88 87 83 86 87 83 81 82 78 75 77 81 80 70 59 54 41 34 39 39 23 9 4 349 344 355 0 356 357 4 1 352 346 337 333
249 238 252 265 267 258 255 262 265 237 195 180 175 176 185 199 205 204 205 201 185 173 178 201 219 200 157 146 122 74 84 103 114 118 120 118 116 109 100 98 102 99 90 89 94 94 90 78 59 58 84 95 92 89 87 84 81 77 72 67 60 53 49 44 38 38 21 353 350 356 354 343 332 325 329 341 350 348 347 350 352 346 337 331 331
Height
777 778 779 780 780 780 782 783 786 788 789 791 794 796 799 801 803 805 807 809 811 813 814 815 817 819 821 822 822 823 824 825 827 828 829 830 831 832 833 834 834 834 835 836 836 838 839 841 842 843 844 844 845 845 846 847 848 848 849 849 849 850 851 852 854 856 858 859 861 863 865 866 868 868 869 871 872 872 873 873 874 874 874 874 874
778 780 781 781 780 781 783 784 786 787 789 791 794 796 798 800 803 805 807 810 811 813 814 815 817 819 820 821 822 823 825 826 827 828 829 831 831 833 833 833 834 835 836 836 837 838 839 840 842 843 844 845 845 846 846 847 847 848 849 850 850 852 852 852 854 856 858 860 861 862 864 866 867 868 868 869 870 871 872 872 873 873 873 874 874
778 781 781 780 780 781 784 785 787 788 789 792 794 796 798 800 802 805 807 810 811 813 814 816 817 819 820 821 822 823 825 826 827 828 830 831 832 833 833 834 834 835 836 837 837 838 839 840 842 843 844 845 845 846 846 846 847 848 849 850 851 852 853 853 854 856 858 859 861 862 863 865 866 866 867 868 869 870 871 871 872 873 873 873 873
777 780 780 779 779 782 784 785 787 788 789 792 794 796 798 799 802 805 807 809 811 813 814 816 817 819 820 821 822 823 825 826 828 829 830 831 832 833 834 834 835 836 837 837 838 838 839 841 842 843 844 845 845 846 846 846 847 848 849 850 851 852 853 854 855 856 857 859 861 861 862 864 865 865 865 866 868 870 870 870 870 871 872 872 871
775 777 779 779 779 781 783 784 786 788 790 792 794 795 797 799 802 805 807 809 811 812 814 816 817 818 820 821 822 824 825 826 828 829 830 832 833 834 834 835 836 836 837 837 838 839 840 841 842 843 844 845 846 847 847 847 848 848 849 850 851 853 853 854 855 856 857 859 860 861 861 863 864 865 864 865 867 868 869 869 868 869 869 870 870
773 774 778 782 781 781 781 783 786 788 790 792 794 795 797 800 803 805 807 809 811 812 814 816 817 819 820 821 822 824 825 827 828 829 831 832 833 834 835 836 836 836 837 837 839 840 841 842 843 844 845 845 846 847 848 848 848 849 850 851 851 853 854 855 855 856 857 858 859 860 861 862 862 863 863 863 863 865 867 867 867 866 866 867 867
772 774 778 782 782 781 782 784 787 789 791 792 794 795 798 801 803 805 807 809 811 813 814 816 817 819 820 821 823 825 826 827 828 829 831 832 833 834 835 836 836 836 837 838 839 841 841 842 844 845 845 846 847 848 848 849 849 850 850 851 852 853 855 855 856 856 857 858 858 859 860 861 861 861 862 862 861 861 863 864 864 864 864 864 864
772 775 778 782 782 782 783 786 788 790 792 793 795 796 798 801 803 805 808 809 811 813 815 817 818 819 821 822 823 824 825 826 827 829 831 833 834 835 835 836 836 837 838 838 839 841 842 843 844 845 846 846 847 848 849 849 850 851 852 853 854 854 855 856 856 856 856 857 858 858 859 860 860 860 860 861 861 860 860 860 860 861 862 861 861
773 776 778 781 782 782 785 787 788 790 792 794 796 797 800 802 803 806 808 809 811 813 815 817 818 820 821 821 822 823 824 826 828 829 831 833 834 835 836 836 837 838 838 839 840 841 842 842 844 845 846 846 847 849 850 851 851 852 853 853 854 855 855 856 856 856 856 856 857 858 858 859 859 859 859 859 859 859 859 859 858 858 860 860 859
775 777 779 780 781 783 785 787 789 790 791 794 797 799 801 803 804 806 808 810 812 813 815 817 819 820 820 821 822 824 825 827 829 830 832 833 834 835 836 837 838 838 839 840 841 842 842 843 844 845 846 847 848 849 850 851 852 853 853 854 854 855 855 855 855 856 856 856 856 857 857 857 858 858 858 859 858 858 858 858 858 858 858 858 858
777 778 779 781 782 784 785 787 788 790 792 795 798 800 802 804 805 807 809 811 813 814 815 817 818 819 820 822 823 825 827 828 830 831 832 833 834 835 836 837 838 839 839 840 841 842 842 843 844 845 846 847 849 850 851 852 853 853 854 854 854 855 855 855 855 855 855 855 856 856 856 856 857 857 857 858 858 858 857 857 857 857 856 856 856
779 780 781 783 784 786 788 789 791 793 796 798 800 801 803 804 805 807 809 811 812 813 815 817 818 820 822 823 824 826 828 829 831 832 833 834 835 835 836 837 838 839 840 840 841 842 843 843 844 845 846 847 849 850 851 852 853 853 854 854 854 855 855 855 855 855 856 856 856 856 856 856 856 856 856 857 857 857 856 856 855 855 855 854 854
781 782 784 786 787 789 791 792 795 797 798 799 800 801 802 804 805 807 809 811 812 814 816 818 820 822 823 825 826 827 829 830 831 833 833 834 835 835 836 837 838 839 840 841 842 842 843 843 843 844 846 847 849 850 851 852 852 853 853 853 853 854 854 855 855 855 855 856 856 855 855 856 855 855 855 855 855 855 854 854 854 854 853 853 852
783 784 785 787 789 791 793 794 796 798 797 797 799 800 802 804 806 808 810 811 813 815 818 819 821 823 824 826 828 829 830 831 832 833 834 835 836 836 837 838 838 839 840 841 842 843 844 844 844 844 845 847 848 850 851 851 852 852 853 853 853 853 853 853 854 854 855 855 855 854 854 854 854 854 854 854 854 853 853 853 853 852 852 851 851
787 787 787 789 790 793 794 795 796 797 797 797 799 801 804 806 808 810 812 814 816 817 819 820 822 824 825 827 829 830 831 832 832 833 834 835 836 836 837 838 838 839 840 841 842 842 844 845 844 844 846 847 848 849 850 851 851 852 852 852 852 852 852 852 852 853 853 853 853 853 852 852 852 852 852 852 852 852 852 851 851 851 850 849 849
792 792 792 792 793 794 795 796 799 800 799 800 800 803 806 809 811 812 814 816 818 819 820 821 823 825 827 828 830 831 832 833 833 834 835 836 836 837 837 838 839 839 839 840 842 843 845 847 846 845 846 846 846 847 849 850 850 851 851 851 850 850 850 850 851 851 852 851 851 851 850 850 850 850 850 850 850 850 850 849 850 849 849 848 847
797 797 798 797 797 797 798 799 801 803 803 802 804 806 809 811 814 815 817 818 820 821 822 823 825 826 828 830 832 832 833 833 834 834 835 836 836 837 837 837 838 838 839 841 842 843 846 848 846 846 846 846 846 847 847 848 849 850 850 850 849 848 848 849 849 849 849 849 849 849 848 848 848 848 848 848 848 848 847 847 847 847 847 846 845
803 803 803 803 802 802 802 802 804 805 805 806 807 809 811 813 816 818 819 820 821 823 824 825 827 829 830 832 833 833 833 834 835 835 836 837 836 836 835 835 836 838 839 841 843 844 846 847 847 846 846 846 846 846 846 847 848 848 848 848 848 848 847 847 847 847 847 846 846 846 846 846 846 845 845 845 845 844 844 843 844 845 844 843 843
808 808 808 808 807 807 806 806 806 806 807 809 810 811 812 815 817 819 820 822 823 825 825 826 828 830 831 833 834 834 835 835 836 836 837 837 836 834 833 833 835 838 839 842 845 846 847 847 846 846 846 846 845 845 845 846 847 847 847 847 847 847 847 846 846 846 845 844 844 844 844 844 843 843 842 842 841 840 840 840 840 841 841 841 841
813 812 812 810 810 810 810 809 810 810 811 812 813 814 815 817 819 821 822 823 824 825 827 828 830 831 832 833 834 835 836 836 837 837 837 836 834 833 833 834 835 838 840 843 846 847 847 847 846 846 846 845 845 845 845 845 846 846 847 847 847 847 846 846 846 845 844 844 844 843 843 842 842 841 840 839 838 837 837 837 838 838 838 838 839
816 816 815 814 813 813 813 813 813 814 815 815 816 817 818 820 821 822 823 824 825 827 828 829 831 832 833 834 835 836 836 836 837 837 836 834 834 833 834 835 836 838 841 843 845 846 846 846 846 845 845 844 844 844 844 844 844 845 845 845 845 845 844 844 844 844 843 843 842 842 842 841 840 839 838 837 836 836 835 835 835 835 835 835 836
820 819 819 818 817 817 817 817 816 817 818 818 818 820 822 822 823 824 825 826 827 828 830 831 832 833 834 835 836 837 837 837 837 836 835 835 835 835 836 837 838 840 841 843 844 845 845 845 844 844 843 843 843 843 843 843 843 843 843 842 842 842 842 842 842 842 842 841 840 840 839 839 838 837 836 835 835 834 833 833 833 832 832 833 834
823 822 823 823 822 821 821 821 821 821 821 821 822 824 825 825 826 826 827 828 829 830 831 831 833 834 835 836 837 838 838 838 838 837 837 836 837 837 838 839 840 840 841 842 843 843 843 843 843 842 842 842 841 841 840 840 840 840 840 840 840 839 839 839 839 839 839 839 838 837 837 837 836 835 834 833 833 832 831 831 830 830 830 831 831
827 826 826 827 826 825 825 825 825 825 825 825 825 825 826 827 828 828 828 829 830 831 831 832 833 834 835 837 838 838 838 839 839 839 839 839 839 839 839 840 841 841 841 842 842 842 842 841 841 841 840 840 839 839 838 838 837 837 837 837 837 837 837 837 837 837 837 836 836 836 835 835 834 832 832 831 830 830 829 829 829 828 828 828 829
831 831 831 830 829 829 829 828 828 828 828 828 828 828 828 829 829 829 830 830 831 832 832 833 834 835 836 837 838 839 839 839 840 840 840 840 841 841 841 842 842 842 842 842 842 842 841 841 840 840 839 838 837 837 836 836 836 835 835 835 835 835 835 835 835 835 835 835 835 835 834 834 833 832 830 830 829 828 828 828 827 827 827 827 828
835 835 835 834 833 832 832 831 830 830 830 830 830 830 830 830 830 830 831 831 832 833 834 835 835 836 837 838 839 840 840 840 841 842 842 842 842 842 842 843 843 843 843 843 842 842 841 840 839 839 838 838 837 836 836 835 835 835 834 834 834 834 834 834 834 834 834 834 834 834 834 833 832 831 830 829 828 827 827 827 826 827 827 827 828
838 837 837 837 836 835 835 834 833 832 832 832 832 832 832 832 831 832 832 832 833 834 835 836 837 838 838 839 840 840 840 841 842 842 842 843 842 843 843 843 843 843 843 843 842 842 841 840 839 838 838 837 837 837 836 835 835 834 834 834 834 834 833 833 833 834 834 834 833 833 833 832 832 831 830 829 828 827 827 827 827 827 828 828 829
840 839 838 838 838 837 837 836 836 835 835 834 834 834 834 834 834 834 835 835 835 836 837 838 839 839 840 840 840 841 841 842 842 842 843 843 843 843 843 843 843 843 842 842 842 842 841 840 839 838 837 837 837 836 835 835 835 835 835 835 834 834 833 833 834 834 833 833 832 832 832 831 831 832 831 829 828 828 828 828 828 828 829 829 829
842 841 841 840 840 839 839 838 838 838 838 837 837 836 837 837 836 837 837 838 838 839 839 840 840 841 841 841 842 842 842 843 843 843 844 844 844 844 843 843 842 842 842 842 842 841 840 839 838 838 837 837 837 836 836 836 836 835 835 835 834 834 834 834 834 833 832 832 831 831 831 831 831 831 831 829 828 828 829 829 829 829 830 830 830
844 843 843 842 841 841 841 840 840 840 840 840 839 839 839 839 839 839 840 840 841 841 841 842 842 842 843 843 843 843 844 844 844 845 845 845 844 844 843 843 842 842 842 842 842 841 840 839 838 838 838 838 838 837 837 837 836 836 836 835 835 835 834 834 834 833 832 832 831 831 831 831 830 830 831 830 829 828 828 829 829 830 830 831 831
845 845 844 843 843 842 842 842 842 841 841 841 841 841 841 841 841 841 842 842 843 843 843 844 844 844 844 844 845 845 845 845 846 846 845 845 845 844 844 843 843 842 842 842 842 842 841 840 840 840 839 839 838 838 837 837 837 837 836 836 836 835 834 834 834 833 833 832 832 832 832 831 831 830 831 831 830 829 829 830 830 830 831 831 831
846 846 845 845 844 844 844 843 843 843 842 842 842 842 842 842 843 843 844 844 844 845 845 845 846 846 846 846 846 846 846 846 846 846 846 845 845 845 845 844 843 843 843 842 842 842 841 841 840 840 840 840 839 839 838 838 838 838 838 837 837 837 836 835 834 834 833 833 833 833 833 832 831 831 831 831 831 831 831 831 831 831 831 831 832
847 847 846 845 845 845 845 844 844 843 843 843 842 842 843 843 843 844 845 846 846 846 846 846 847 847 847 847 847 847 847 846 846 846 846 846 846 846 846 845 845 844 844 843 843 843 842 842 842 841 841 841 841 840 840 840 840 840 839 839 839 838 838 836 835 835 834 834 834 834 834 833 833 832 832 832 832 832 832 832 832 832 832 833 833
848 848 847 846 845 845 845 845 844 844 844 844 844 843 844 844 844 844 845 846 847 848 848 847 848 848 848 848 848 848 848 847 847 847 847 847 847 847 846 846 846 846 845 845 845 845 844 844 844 843 843 843 843 842 842 841 841 841 840 840 840 839 838 837 836 835 835 835 834 835 835 835 834 834 834 834 834 833 833 833 833 834 834 834 834
849 849 848 848 847 847 847 847 846 845 845 844 844 844 844 844 844 844 844 845 846 848 849 849 849 849 849 849 849 849 849 849 849 848 848 848 848 847 847 847 847 847 847 847 847 847 847 847 846 846 846 845 845 844 843 843 843 842 841 841 840 840 839 838 838 837 836 836 836 836 836 836 836 836 836 836 835 835 835 835 835 835 835 835 835
850 850 850 850 849 849 849 848 847 847 846 845 845 845 845 845 845 845 845 845 846 848 849 849 849 850 850 851 851 851 851 851 850 850 850 849 849 849 848 849 849 849 849 850 850 849 849 849 849 848 848 847 846 846 845 844 843 843 842 842 841 841 840 840 839 838 837 838 838 838 838 838 838 838 838 838 838 838 837 837 836 836 836 836 835
850 851 851 851 851 851 850 849 848 848 847 847 847 846 846 846 846 845 846 846 847 848 849 849 850 851 852 852 852 852 852 852 852 852 851 851 851 851 850 851 851 851 851 851 851 850 850 850 850 849 849 848 847 847 846 845 844 844 843 843 843 843 842 841 840 840 840 840 840 840 840 840 840 840 840 840 840 840 839 839 838 838 837 837 837
850 851 851 851 851 851 850 850 850 849 848 848 847 847 847 847 847 847 848 848 849 849 849 850 851 852 853 853 853 853 853 853 853 853 853 853 852 852 852 852 852 852 852 852 851 851 851 851 850 850 849 849 848 847 847 846 845 845 845 844 844 844 843 843 842 842 842 842 842 842 842 842 842 842 841 841 841 841 841 840 840 839 839 838 838
850 851 851 851 851 851 851 850 850 850 849 848 848 848 848 848 848 849 849 850 850 850 850 851 852 853 854 854 854 854 854 854 854 854 854 854 853 853 853 853 853 852 852 852 852 852 852 851 851 850 850 849 849 848 848 847 847 846 846 845 845 845 844 844 844 843 843 844 844 844 844 844 844 843 843 842 842 842 841 841 841 840 839 839 839
850 850 850 850 851 851 851 850 850 850 849 849 849 849 850 850 849 850 850 851 851 851 852 853 854 855 855 855 855 854 855 855 855 855 855 855 854 854 854 854 853 853 853 853 853 853 852 852 852 851 850 850 849 849 849 848 848 847 847 846 846 846 845 845 845 845 845 846 846 846 846 846 845 845 844 843 843 842 842 842 841 841 840 840 839
850 850 850 850 850 850 850 849 849 849 849 850 850 850 851 851 851 851 851 852 853 853 854 855 856 857 857 856 856 856 856 856 856 856 856 855 855 855 855 855 854 854 854 853 853 853 853 852 852 851 851 850 850 850 850 850 849 849 849 848 848 847 847 847 847 847 847 847 847 847 847 847 846 846 845 844 844 843 843 842 841 841 841 840 840
851 850 850 849 850 850 849 849 849 849 850 851 852 852 852 852 852 852 852 853 854 854 855 856 857 857 857 857 857 856 856 856 857 857 857 857 856 856 856 856 855 855 854 854 854 854 853 853 852 852 851 851 851 851 851 851 851 850 850 850 850 849 849 849 849 849 849 849 848 848 848 848 847 847 846 845 844 843 843 843 842 842 841 841 840
851 851 850 850 850 849 849 849 850 850 851 852 853 853 854 854 853 853 853 854 855 855 856 856 857 857 857 857 857 857 857 857 857 857 858 857 857 857 856 856 856 855 855 855 854 854 854 854 853 853 853 852 852 852 852 852 852 852 852 851 851 851 851 851 850 850 850 850 850 849 849 849 848 848 847 846 845 844 844 843 843 842 842 842 842
851 850 850 850 850 849 849 850 850 851 852 853 854 854 855 854 854 854 855 855 856 856 857 857 857 857 857 857 857 857 857 858 858 858 858 857 857 857 857 856 856 856 855 855 855 855 855 854 854 854 854 854 854 854 853 853 853 853 853 853 853 852 852 852 852 851 851 851 851 850 850 849 849 848 848 847 846 845 845 844 844 843 843 843 843
851 850 850 850 849 849 849 849 849 851 853 854 854 855 855 855 855 855 855 856 856 857 857 857 857 857 857 857 857 857 857 858 858 858 858 857 857 857 857 857 857 856 856 856 856 856 856 855 855 855 855 855 855 855 855 855 854 854 854 854 854 854 854 853 853 853 852 852 852 851 851 850 849 849 849 848 848 847 846 846 845 845 845 845 844
850 850 849 849 849 849 849 849 850 851 852 854 855 855 855 855 855 855 856 856 857 857 857 857 857 857 857 857 857 857 857 857 857 857 857 857 858 858 858 858 858 857 857 857 857 857 857 856 856 856 856 856 856 857 857 856 856 856 856 855 855 855 854 854 854 853 853 853 852 852 851 851 850 850 850 849 849 848 848 847 846 846 846 845 845
850 849 849 849 848 849 849 849 850 851 852 854 855 855 855 855 855 855 856 857 857 857 857 857 856 857 856 856 857 857 857 857 857 857 857 857 858 858 858 859 858 858 858 858 858 858 858 858 858 858 858 858 858 858 858 858 857 857 856 856 856 855 855 855 854 854 854 853 853 852 852 852 851 851 851 850 849 849 848 848 847 846 846 846 846
849 849 848 848 848 848 848 848 849 850 852 853 854 855 855 855 855 855 856 856 857 857 856 856 856 856 856 856 856 856 856 857 857 856 857 857 858 858 859 859 859 859 859 859 859 859 859 859 859 859 859 859 858 858 858 858 857 857 857 856 856 856 855 855 855 855 854 854 853 853 853 852 852 852 851 851 850 849 849 848 847 847 846 846 845
849 849 848 848 848 848 848 848 848 849 850 851 853 854 854 855 855 855 855 856 856 856 855 855 855 855 855 855 856 856 856 856 857 857 857 857 858 859 859 859 860 860 860 860 860 860 860 860 860 860 860 859 859 858 858 858 858 857 857 857 856 856 856 856 856 856 855 855 854 854 853 853 852 852 852 851 850 850 849 848 848 847 846 846 845
848 848 848 848 847 848 848 847 848 848 848 850 851 852 853 853 854 854 854 854 855 855 855 855 854 854 855 855 855 855 855 856 856 857 857 858 859 859 859 860 860 860 861 861 861 861 861 861 861 860 860 860 859 859 859 858 858 858 858 857 857 857 857 857 857 856 856 855 855 854 854 853 853 852 852 851 850 850 849 849 848 848 847 846 845
848 848 848 847 847 847 847 847 847 847 847 848 848 849 850 851 852 853 853 853 854 854 855 855 854 854 854 855 855 855 855 856 856 856 857 858 859 859 860 860 861 861 861 862 862 862 862 862 861 861 861 860 860 860 860 859 859 859 859 858 858 858 858 858 857 857 857 856 855 855 854 854 853 852 852 851 850 850 849 849 848 848 847 846 846